カタログに戻る

COSMOS 1275 DEB

LostPO
NORAD 39940·DEBRIS·🇷🇺 Russia

打ち上げ Jun 4, 1981 から Plesetsk Cosmodrome

Loading…

次のパス (今後24時間)

TLE

古いSource: Space-Track

元期: Aug 8, 2017, 13:55 UTC

1 39940U 81053NA  17220.57998663 -.00000060  00000-0 -87341-4 0  9992
2 39940  82.9881  76.5644 0073887   8.7986  22.3344 13.67364880587820

AllMySatでCOSMOS 1275 DEBをリアルタイム追跡

Download on the App Store